Time,TemperatureF,DewpointF,PressureIn,WindDirection,WindDirectionDegrees,WindSpeedMPH,WindSpeedGustMPH,Humidity,HourlyPrecipIn,Conditions,Clouds,dailyrainin,SoftwareType,DateUTC
2013-02-11 00:00:00,65.0,60.4,30.17,SE,125,4.0,6.0,85,0.00,,,0.00,Weather View 32 v70,2013-02-11 05:00:00,
2013-02-11 00:05:00,65.0,60.4,30.16,SE,132,0.0,6.0,85,0.00,,,0.00,Weather View 32 v70,2013-02-11 05:05:00,
2013-02-11 00:10:00,65.0,60.4,30.16,SE,133,0.0,6.0,85,0.00,,,0.00,Weather View 32 v70,2013-02-11 05:10:00,
2013-02-11 00:15:00,65.0,60.7,30.16,SE,126,0.0,7.0,86,0.00,,,0.00,Weather View 32 v70,2013-02-11 05:15:00,
2013-02-11 00:20:00,65.0,60.7,30.16,SE,130,4.0,7.0,86,0.00,,,0.00,Weather View 32 v70,2013-02-11 05:20:00,
2013-02-11 00:25:00,65.0,60.7,30.16,SE,130,3.0,8.0,86,0.00,,,0.00,Weather View 32 v70,2013-02-11 05:25:00,
2013-02-11 00:30:00,65.0,60.7,30.16,SE,130,0.0,8.0,86,0.00,,,0.00,Weather View 32 v70,2013-02-11 05:30:00,
2013-02-11 00:35:00,65.0,61.0,30.15,SE,137,0.0,8.0,87,0.00,,,0.00,Weather View 32 v70,2013-02-11 05:35:00,
2013-02-11 00:40:00,65.0,61.0,30.15,SE,133,1.0,8.0,87,0.00,,,0.00,Weather View 32 v70,2013-02-11 05:40:00,
2013-02-11 00:45:00,65.0,61.0,30.15,SE,127,0.0,8.0,87,0.00,,,0.00,Weather View 32 v70,2013-02-11 05:45:00,
2013-02-11 00:50:00,65.0,61.0,30.15,SE,129,3.0,8.0,87,0.00,,,0.00,Weather View 32 v70,2013-02-11 05:50:00,
2013-02-11 00:55:00,65.0,61.0,30.15,SE,136,0.0,8.0,87,0.00,,,0.00,Weather View 32 v70,2013-02-11 05:55:00,
2013-02-11 01:00:00,65.0,61.0,30.15,ESE,123,0.0,8.0,87,0.00,,,0.00,Weather View 32 v70,2013-02-11 06:00:00,
2013-02-11 01:05:00,65.0,61.0,30.16,SE,129,2.0,8.0,87,0.00,,,0.00,Weather View 32 v70,2013-02-11 06:05:00,
2013-02-11 01:10:00,65.0,61.0,30.16,SE,130,0.0,8.0,87,0.00,,,0.00,Weather View 32 v70,2013-02-11 06:10:00,
2013-02-11 01:15:00,65.0,61.0,30.16,SE,130,1.0,8.0,87,0.00,,,0.00,Weather View 32 v70,2013-02-11 06:15:00,
2013-02-11 01:20:00,65.0,61.0,30.15,SE,133,0.0,8.0,87,0.00,,,0.00,Weather View 32 v70,2013-02-11 06:20:00,
2013-02-11 01:25:00,65.0,61.0,30.15,SE,134,1.0,7.0,87,0.00,,,0.00,Weather View 32 v70,2013-02-11 06:25:00,
2013-02-11 01:30:00,65.0,61.0,30.16,SE,134,0.0,7.0,87,0.00,,,0.00,Weather View 32 v70,2013-02-11 06:30:00,
2013-02-11 01:35:00,65.0,61.3,30.16,SE,128,1.0,7.0,88,0.00,,,0.00,Weather View 32 v70,2013-02-11 06:35:00,
2013-02-11 01:40:00,65.0,61.3,30.16,SE,128,0.0,6.0,88,0.00,,,0.00,Weather View 32 v70,2013-02-11 06:40:00,
2013-02-11 01:45:00,65.0,61.3,30.16,SE,129,0.0,6.0,88,0.00,,,0.00,Weather View 32 v70,2013-02-11 06:45:00,
2013-02-11 01:51:00,65.0,61.3,30.16,SE,129,0.0,6.0,88,0.00,,,0.00,Weather View 32 v70,2013-02-11 06:51:00,
2013-02-11 01:56:00,64.0,60.4,30.15,SE,129,0.0,6.0,88,0.00,,,0.00,Weather View 32 v70,2013-02-11 06:56:00,
2013-02-11 02:01:00,64.0,60.4,30.15,SE,132,0.0,6.0,88,0.00,,,0.00,Weather View 32 v70,2013-02-11 07:01:00,
2013-02-11 02:06:00,64.0,60.4,30.15,SE,132,0.0,6.0,88,0.00,,,0.00,Weather View 32 v70,2013-02-11 07:06:00,
2013-02-11 02:11:00,64.0,60.4,30.15,SE,130,2.0,6.0,88,0.00,,,0.00,Weather View 32 v70,2013-02-11 07:11:00,
2013-02-11 02:16:00,64.0,60.4,30.15,SE,130,0.0,6.0,88,0.00,,,0.00,Weather View 32 v70,2013-02-11 07:16:00,
2013-02-11 02:21:00,64.0,60.4,30.14,SE,130,0.0,6.0,88,0.00,,,0.00,Weather View 32 v70,2013-02-11 07:21:00,
2013-02-11 02:26:00,64.0,60.7,30.14,SE,130,0.0,6.0,89,0.00,,,0.00,Weather View 32 v70,2013-02-11 07:26:00,
2013-02-11 02:30:00,64.0,60.7,30.14,SE,132,2.0,6.0,89,0.00,,,0.00,Weather View 32 v70,2013-02-11 07:30:00,
2013-02-11 02:31:00,64.0,60.7,30.14,SE,132,2.0,6.0,89,0.00,,,0.00,Weather View 32 v70,2013-02-11 07:31:00,
2013-02-11 02:36:00,64.0,60.7,30.14,SE,132,5.0,6.0,89,0.00,,,0.00,Weather View 32 v70,2013-02-11 07:36:00,
2013-02-11 02:41:00,64.0,60.7,30.14,SE,132,1.0,6.0,89,0.00,,,0.00,Weather View 32 v70,2013-02-11 07:41:00,
2013-02-11 02:46:00,64.0,60.7,30.13,SE,134,0.0,6.0,89,0.00,,,0.00,Weather View 32 v70,2013-02-11 07:46:00,
2013-02-11 02:51:00,64.0,60.7,30.13,SE,133,0.0,6.0,89,0.00,,,0.00,Weather View 32 v70,2013-02-11 07:51:00,
2013-02-11 03:00:00,64.0,60.7,30.13,SE,134,2.0,7.0,89,0.00,,,0.00,Weather View 32 v70,2013-02-11 08:00:00,
2013-02-11 03:05:00,64.0,60.7,30.13,SE,134,0.0,7.0,89,0.00,,,0.00,Weather View 32 v70,2013-02-11 08:05:00,
2013-02-11 03:10:00,64.0,61.0,30.13,SE,134,1.0,7.0,90,0.00,,,0.00,Weather View 32 v70,2013-02-11 08:10:00,
2013-02-11 03:15:00,64.0,61.0,30.13,SE,136,3.0,7.0,90,0.00,,,0.00,Weather View 32 v70,2013-02-11 08:15:00,
2013-02-11 03:20:00,63.0,60.0,30.13,SE,124,3.0,8.0,90,0.00,,,0.00,Weather View 32 v70,2013-02-11 08:20:00,
2013-02-11 03:25:00,63.0,60.0,30.12,SE,129,3.0,8.0,90,0.00,,,0.00,Weather View 32 v70,2013-02-11 08:25:00,
2013-02-11 03:30:00,63.0,60.0,30.12,SE,136,2.0,8.0,90,0.00,,,0.00,Weather View 32 v70,2013-02-11 08:30:00,
2013-02-11 03:35:00,63.0,60.0,30.12,SE,142,0.0,8.0,90,0.00,,,0.00,Weather View 32 v70,2013-02-11 08:35:00,
2013-02-11 03:40:00,63.0,60.0,30.12,SE,132,0.0,8.0,90,0.00,,,0.00,Weather View 32 v70,2013-02-11 08:40:00,
2013-02-11 03:45:00,63.0,60.0,30.12,SE,132,4.0,8.0,90,0.00,,,0.00,Weather View 32 v70,2013-02-11 08:45:00,
2013-02-11 03:50:00,63.0,60.0,30.12,SE,138,0.0,8.0,90,0.00,,,0.00,Weather View 32 v70,2013-02-11 08:50:00,
2013-02-11 03:55:00,63.0,60.3,30.12,SE,132,0.0,8.0,91,0.00,,,0.00,Weather View 32 v70,2013-02-11 08:55:00,
2013-02-11 04:00:00,63.0,60.3,30.11,SE,133,0.0,8.0,91,0.00,,,0.00,Weather View 32 v70,2013-02-11 09:00:00,
2013-02-11 04:05:00,63.0,60.3,30.11,SE,130,0.0,8.0,91,0.00,,,0.00,Weather View 32 v70,2013-02-11 09:05:00,
2013-02-11 04:10:00,63.0,60.3,30.11,SE,132,3.0,8.0,91,0.00,,,0.00,Weather View 32 v70,2013-02-11 09:10:00,
2013-02-11 04:15:00,63.0,60.3,30.11,SE,125,3.0,8.0,91,0.00,,,0.00,Weather View 32 v70,2013-02-11 09:15:00,
2013-02-11 04:20:00,63.0,60.3,30.11,SE,132,1.0,8.0,91,0.00,,,0.00,Weather View 32 v70,2013-02-11 09:20:00,
2013-02-11 04:25:00,63.0,60.3,30.11,SE,128,0.0,7.0,91,0.00,,,0.00,Weather View 32 v70,2013-02-11 09:25:00,
2013-02-11 04:30:00,63.0,60.3,30.11,SE,132,0.0,9.0,91,0.00,,,0.00,Weather View 32 v70,2013-02-11 09:30:00,
2013-02-11 04:35:00,63.0,60.3,30.11,SE,134,6.0,9.0,91,0.00,,,0.00,Weather View 32 v70,2013-02-11 09:35:00,
2013-02-11 04:40:00,63.0,60.3,30.11,SE,133,2.0,9.0,91,0.00,,,0.00,Weather View 32 v70,2013-02-11 09:40:00,
2013-02-11 04:45:00,63.0,60.3,30.11,SE,137,1.0,9.0,91,0.00,,,0.00,Weather View 32 v70,2013-02-11 09:45:00,
2013-02-11 04:50:00,63.0,60.3,30.11,SE,136,0.0,9.0,91,0.00,,,0.00,Weather View 32 v70,2013-02-11 09:50:00,
2013-02-11 04:55:00,63.0,60.3,30.12,SE,136,0.0,9.0,91,0.00,,,0.00,Weather View 32 v70,2013-02-11 09:55:00,
2013-02-11 05:00:00,63.0,60.3,30.11,SE,136,0.0,9.0,91,0.00,,,0.00,Weather View 32 v70,2013-02-11 10:00:00,
2013-02-11 05:05:00,63.0,60.3,30.12,SE,141,0.0,9.0,91,0.00,,,0.00,Weather View 32 v70,2013-02-11 10:05:00,
2013-02-11 05:10:00,63.0,60.3,30.12,SE,141,0.0,9.0,91,0.00,,,0.00,Weather View 32 v70,2013-02-11 10:10:00,
2013-02-11 05:15:00,63.0,60.3,30.12,SE,141,2.0,9.0,91,0.00,,,0.00,Weather View 32 v70,2013-02-11 10:15:00,
2013-02-11 05:20:00,63.0,60.3,30.12,SE,138,4.0,9.0,91,0.00,,,0.00,Weather View 32 v70,2013-02-11 10:20:00,
2013-02-11 05:25:00,63.0,60.3,30.12,SE,136,0.0,9.0,91,0.00,,,0.00,Weather View 32 v70,2013-02-11 10:25:00,
2013-02-11 05:30:00,63.0,60.3,30.12,SE,136,0.0,8.0,91,0.00,,,0.00,Weather View 32 v70,2013-02-11 10:30:00,
2013-02-11 05:31:00,63.0,60.3,30.12,SE,136,3.0,8.0,91,0.00,,,0.00,Weather View 32 v70,2013-02-11 10:31:00,
2013-02-11 05:36:00,63.0,60.3,30.12,SE,135,0.0,8.0,91,0.00,,,0.00,Weather View 32 v70,2013-02-11 10:36:00,
2013-02-11 05:41:00,63.0,60.3,30.13,SE,134,3.0,6.0,91,0.00,,,0.00,Weather View 32 v70,2013-02-11 10:41:00,
2013-02-11 05:46:00,63.0,60.3,30.13,SE,138,0.0,6.0,91,0.00,,,0.00,Weather View 32 v70,2013-02-11 10:46:00,
2013-02-11 05:51:00,63.0,60.6,30.13,SE,142,4.0,6.0,92,0.00,,,0.00,Weather View 32 v70,2013-02-11 10:51:00,
2013-02-11 05:56:00,63.0,60.6,30.13,SE,141,0.0,6.0,92,0.00,,,0.00,Weather View 32 v70,2013-02-11 10:56:00,
2013-02-11 06:01:00,63.0,60.6,30.13,SE,129,0.0,6.0,92,0.00,,,0.00,Weather View 32 v70,2013-02-11 11:01:00,
2013-02-11 06:06:00,63.0,60.6,30.13,SE,132,0.0,6.0,92,0.00,,,0.00,Weather View 32 v70,2013-02-11 11:06:00,
2013-02-11 06:11:00,63.0,60.6,30.13,SE,132,0.0,6.0,92,0.00,,,0.00,Weather View 32 v70,2013-02-11 11:11:00,
2013-02-11 06:16:00,63.0,60.6,30.14,SE,131,2.0,6.0,92,0.00,,,0.00,Weather View 32 v70,2013-02-11 11:16:00,
2013-02-11 06:21:00,63.0,60.6,30.14,SE,132,2.0,6.0,92,0.00,,,0.00,Weather View 32 v70,2013-02-11 11:21:00,
2013-02-11 06:26:00,63.0,60.6,30.14,SE,130,1.0,6.0,92,0.00,,,0.00,Weather View 32 v70,2013-02-11 11:26:00,
2013-02-11 06:30:00,63.0,60.6,30.14,SE,130,0.0,6.0,92,0.00,,,0.00,Weather View 32 v70,2013-02-11 11:30:00,
2013-02-11 06:31:00,63.0,60.6,30.14,SE,129,0.0,6.0,92,0.00,,,0.00,Weather View 32 v70,2013-02-11 11:31:00,
2013-02-11 06:36:00,63.0,60.6,30.15,SE,130,0.0,6.0,92,0.00,,,0.00,Weather View 32 v70,2013-02-11 11:36:00,
2013-02-11 06:41:00,63.0,60.3,30.15,SE,130,0.0,6.0,91,0.00,,,0.00,Weather View 32 v70,2013-02-11 11:41:00,
2013-02-11 06:46:00,62.0,59.3,30.15,SE,130,0.0,6.0,91,0.00,,,0.00,Weather View 32 v70,2013-02-11 11:46:00,
2013-02-11 06:51:00,62.0,59.6,30.15,SE,131,0.0,6.0,92,0.00,,,0.00,Weather View 32 v70,2013-02-11 11:51:00,
2013-02-11 06:56:00,62.0,59.6,30.15,SE,131,0.0,6.0,92,0.00,,,0.00,Weather View 32 v70,2013-02-11 11:56:00,
2013-02-11 07:01:00,62.0,59.6,30.16,SE,132,0.0,5.0,92,0.00,,,0.00,Weather View 32 v70,2013-02-11 12:01:00,
2013-02-11 07:06:00,62.0,59.6,30.16,SE,132,0.0,4.0,92,0.00,,,0.00,Weather View 32 v70,2013-02-11 12:06:00,
2013-02-11 07:11:00,62.0,59.6,30.16,SE,133,0.0,4.0,92,0.00,,,0.00,Weather View 32 v70,2013-02-11 12:11:00,
2013-02-11 07:16:00,62.0,59.6,30.16,SE,132,3.0,4.0,92,0.00,,,0.00,Weather View 32 v70,2013-02-11 12:16:00,
2013-02-11 07:21:00,62.0,59.9,30.16,SE,133,0.0,4.0,93,0.00,,,0.00,Weather View 32 v70,2013-02-11 12:21:00,
2013-02-11 07:26:00,62.0,59.9,30.16,SE,130,2.0,4.0,93,0.00,,,0.00,Weather View 32 v70,2013-02-11 12:26:00,
2013-02-11 07:30:00,62.0,59.9,30.16,SE,133,0.0,5.0,93,0.00,,,0.00,Weather View 32 v70,2013-02-11 12:30:00,
2013-02-11 07:31:00,62.0,59.6,30.16,SE,133,0.0,5.0,92,0.00,,,0.00,Weather View 32 v70,2013-02-11 12:31:00,
2013-02-11 07:36:00,62.0,59.9,30.16,SE,131,0.0,5.0,93,0.00,,,0.00,Weather View 32 v70,2013-02-11 12:36:00,
2013-02-11 07:41:00,62.0,59.9,30.17,SE,130,2.0,5.0,93,0.00,,,0.00,Weather View 32 v70,2013-02-11 12:41:00,
2013-02-11 07:46:00,62.0,59.9,30.16,East,90,0.0,5.0,93,0.00,,,0.00,Weather View 32 v70,2013-02-11 12:46:00,
2013-02-11 07:51:00,62.0,59.9,30.16,SE,130,2.0,10.0,93,0.00,,,0.00,Weather View 32 v70,2013-02-11 12:51:00,
2013-02-11 07:56:00,62.0,59.9,30.16,SE,130,3.0,10.0,93,0.00,,,0.00,Weather View 32 v70,2013-02-11 12:56:00,
2013-02-11 08:01:00,62.0,59.9,30.17,SE,130,0.0,10.0,93,0.00,,,0.00,Weather View 32 v70,2013-02-11 13:01:00,
2013-02-11 08:06:00,63.0,60.9,30.17,ESE,123,2.0,10.0,93,0.00,,,0.00,Weather View 32 v70,2013-02-11 13:06:00,
2013-02-11 08:11:00,63.0,60.9,30.17,ESE,115,1.0,10.0,93,0.00,,,0.00,Weather View 32 v70,2013-02-11 13:11:00,
2013-02-11 08:16:00,63.0,60.9,30.17,SE,129,1.0,10.0,93,0.00,,,0.00,Weather View 32 v70,2013-02-11 13:16:00,
2013-02-11 08:21:00,64.0,61.6,30.17,SE,139,2.0,10.0,92,0.00,,,0.00,Weather View 32 v70,2013-02-11 13:21:00,
2013-02-11 08:26:00,64.0,61.6,30.17,SE,142,4.0,10.0,92,0.00,,,0.00,Weather View 32 v70,2013-02-11 13:26:00,
2013-02-11 08:30:00,65.0,62.3,30.17,SE,129,2.0,10.0,91,0.00,,,0.00,Weather View 32 v70,2013-02-11 13:30:00,
2013-02-11 08:31:00,65.0,62.3,30.17,SE,130,2.0,10.0,91,0.00,,,0.00,Weather View 32 v70,2013-02-11 13:31:00,
2013-02-11 08:36:00,65.0,62.0,30.17,SE,129,3.0,10.0,90,0.00,,,0.00,Weather View 32 v70,2013-02-11 13:36:00,
2013-02-11 08:41:00,66.0,63.0,30.17,SE,126,1.0,10.0,90,0.00,,,0.00,Weather View 32 v70,2013-02-11 13:41:00,
2013-02-11 08:46:00,66.0,62.7,30.17,SE,131,7.0,10.0,89,0.00,,,0.00,Weather View 32 v70,2013-02-11 13:46:00,
2013-02-11 08:51:00,67.0,63.3,30.17,SE,129,5.0,10.0,88,0.00,,,0.00,Weather View 32 v70,2013-02-11 13:51:00,
2013-02-11 08:56:00,68.0,64.0,30.17,SE,141,2.0,10.0,87,0.00,,,0.00,Weather View 32 v70,2013-02-11 13:56:00,
2013-02-11 09:01:00,68.0,63.6,30.17,SE,128,3.0,10.0,86,0.00,,,0.00,Weather View 32 v70,2013-02-11 14:01:00,
2013-02-11 09:06:00,69.0,64.3,30.17,SE,139,2.0,10.0,85,0.00,,,0.00,Weather View 32 v70,2013-02-11 14:06:00,
2013-02-11 09:11:00,69.0,63.9,30.17,SE,142,6.0,11.0,84,0.00,,,0.00,Weather View 32 v70,2013-02-11 14:11:00,
2013-02-11 09:16:00,70.0,64.6,30.17,SE,138,4.0,12.0,83,0.00,,,0.00,Weather View 32 v70,2013-02-11 14:16:00,
2013-02-11 09:21:00,70.0,64.2,30.17,SE,136,0.0,12.0,82,0.00,,,0.00,Weather View 32 v70,2013-02-11 14:21:00,
2013-02-11 09:27:00,71.0,64.9,30.18,SE,129,7.0,12.0,81,0.00,,,0.00,Weather View 32 v70,2013-02-11 14:27:00,
2013-02-11 09:30:00,71.0,64.9,30.18,SE,142,3.0,12.0,81,0.00,,,0.00,Weather View 32 v70,2013-02-11 14:30:00,
2013-02-11 09:32:00,71.0,64.9,30.17,SE,138,0.0,12.0,81,0.00,,,0.00,Weather View 32 v70,2013-02-11 14:32:00,
2013-02-11 09:37:00,72.0,65.5,30.17,SE,128,5.0,12.0,80,0.00,,,0.00,Weather View 32 v70,2013-02-11 14:37:00,
2013-02-11 09:42:00,72.0,65.1,30.18,South,170,0.0,12.0,79,0.00,,,0.00,Weather View 32 v70,2013-02-11 14:42:00,
2013-02-11 09:47:00,73.0,65.7,30.18,SE,133,2.0,12.0,78,0.00,,,0.00,Weather View 32 v70,2013-02-11 14:47:00,
2013-02-11 09:52:00,73.0,65.3,30.18,SSE,149,2.0,12.0,77,0.00,,,0.00,Weather View 32 v70,2013-02-11 14:52:00,
2013-02-11 09:57:00,74.0,65.9,30.18,SE,143,6.0,12.0,76,0.00,,,0.00,Weather View 32 v70,2013-02-11 14:57:00,
2013-02-11 10:02:00,74.0,65.5,30.18,SE,132,6.0,12.0,75,0.00,,,0.00,Weather View 32 v70,2013-02-11 15:02:00,
2013-02-11 10:07:00,74.0,65.2,30.18,SE,134,3.0,12.0,74,0.00,,,0.00,Weather View 32 v70,2013-02-11 15:07:00,
2013-02-11 10:12:00,75.0,66.1,30.18,ESE,123,1.0,12.0,74,0.00,,,0.00,Weather View 32 v70,2013-02-11 15:12:00,
2013-02-11 10:17:00,75.0,65.7,30.18,SE,132,8.0,12.0,73,0.00,,,0.00,Weather View 32 v70,2013-02-11 15:17:00,
2013-02-11 10:22:00,76.0,66.3,30.18,SE,129,5.0,12.0,72,0.00,,,0.00,Weather View 32 v70,2013-02-11 15:22:00,
2013-02-11 10:27:00,76.0,65.9,30.18,SW,229,0.0,12.0,71,0.00,,,0.00,Weather View 32 v70,2013-02-11 15:27:00,
2013-02-11 10:30:00,76.0,65.9,30.17,SW,225,3.0,12.0,71,0.00,,,0.00,Weather View 32 v70,2013-02-11 15:30:00,
2013-02-11 10:32:00,77.0,66.4,30.18,SSW,201,2.0,12.0,70,0.00,,,0.00,Weather View 32 v70,2013-02-11 15:32:00,
2013-02-11 10:37:00,77.0,66.0,30.18,SSE,155,5.0,12.0,69,0.00,,,0.00,Weather View 32 v70,2013-02-11 15:37:00,
2013-02-11 10:42:00,78.0,67.0,30.17,SSW,207,0.0,12.0,69,0.00,,,0.00,Weather View 32 v70,2013-02-11 15:42:00,
2013-02-11 10:47:00,78.0,66.1,30.17,SSW,198,4.0,12.0,67,0.00,,,0.00,Weather View 32 v70,2013-02-11 15:47:00,
2013-02-11 10:52:00,78.0,66.1,30.17,SE,141,0.0,12.0,67,0.00,,,0.00,Weather View 32 v70,2013-02-11 15:52:00,
2013-02-11 10:57:00,78.0,66.5,30.17,South,188,0.0,12.0,68,0.00,,,0.00,Weather View 32 v70,2013-02-11 15:57:00,
2013-02-11 11:02:00,78.0,66.5,30.17,SW,232,3.0,12.0,68,0.00,,,0.00,Weather View 32 v70,2013-02-11 16:02:00,
2013-02-11 11:07:00,78.0,66.5,30.17,South,191,4.0,12.0,68,0.00,,,0.00,Weather View 32 v70,2013-02-11 16:07:00,
2013-02-11 11:12:00,78.0,66.1,30.17,South,175,1.0,12.0,67,0.00,,,0.00,Weather View 32 v70,2013-02-11 16:12:00,
2013-02-11 11:17:00,78.0,66.1,30.17,SSW,198,4.0,12.0,67,0.00,,,0.00,Weather View 32 v70,2013-02-11 16:17:00,
2013-02-11 11:22:00,79.0,67.1,30.17,South,189,0.0,12.0,67,0.00,,,0.00,Weather View 32 v70,2013-02-11 16:22:00,
2013-02-11 11:27:00,79.0,66.6,30.17,SSE,154,2.0,12.0,66,0.00,,,0.00,Weather View 32 v70,2013-02-11 16:27:00,
2013-02-11 11:30:00,80.0,67.1,30.17,SE,126,2.0,12.0,65,0.00,,,0.00,Weather View 32 v70,2013-02-11 16:30:00,
2013-02-11 11:32:00,80.0,67.1,30.17,SW,226,7.0,12.0,65,0.00,,,0.00,Weather View 32 v70,2013-02-11 16:32:00,
2013-02-11 11:37:00,79.0,66.6,30.17,South,191,0.0,12.0,66,0.00,,,0.00,Weather View 32 v70,2013-02-11 16:37:00,
2013-02-11 11:42:00,79.0,66.6,30.16,SSW,209,7.0,13.0,66,0.00,,,0.00,Weather View 32 v70,2013-02-11 16:42:00,
2013-02-11 11:47:00,79.0,67.1,30.16,SSW,196,3.0,13.0,67,0.00,,,0.00,Weather View 32 v70,2013-02-11 16:47:00,
2013-02-11 11:52:00,79.0,67.1,30.16,South,186,5.0,13.0,67,0.00,,,0.00,Weather View 32 v70,2013-02-11 16:52:00,
2013-02-11 11:57:00,80.0,68.0,30.16,ESE,115,0.0,13.0,67,0.00,,,0.00,Weather View 32 v70,2013-02-11 16:57:00,
2013-02-11 12:02:00,80.0,67.6,30.15,SW,218,3.0,13.0,66,0.00,,,0.00,Weather View 32 v70,2013-02-11 17:02:00,
2013-02-11 12:07:00,80.0,67.6,30.15,SSW,198,0.0,13.0,66,0.00,,,0.00,Weather View 32 v70,2013-02-11 17:07:00,
2013-02-11 12:12:00,80.0,67.1,30.15,South,175,5.0,13.0,65,0.00,,,0.00,Weather View 32 v70,2013-02-11 17:12:00,
2013-02-11 12:17:00,80.0,67.6,30.15,SSE,159,4.0,14.0,66,0.00,,,0.00,Weather View 32 v70,2013-02-11 17:17:00,
2013-02-11 12:22:00,80.0,67.6,30.15,SSE,159,0.0,14.0,66,0.00,,,0.00,Weather View 32 v70,2013-02-11 17:22:00,
2013-02-11 12:27:00,80.0,67.1,30.15,SSW,211,1.0,14.0,65,0.00,,,0.00,Weather View 32 v70,2013-02-11 17:27:00,
2013-02-11 12:30:00,80.0,67.6,30.15,SSW,202,2.0,14.0,66,0.00,,,0.00,Weather View 32 v70,2013-02-11 17:30:00,
2013-02-11 12:32:00,80.0,67.6,30.15,SSW,199,5.0,14.0,66,0.00,,,0.00,Weather View 32 v70,2013-02-11 17:32:00,
2013-02-11 12:37:00,80.0,67.6,30.15,South,188,3.0,14.0,66,0.00,,,0.00,Weather View 32 v70,2013-02-11 17:37:00,
2013-02-11 12:42:00,80.0,67.1,30.15,SSE,152,2.0,14.0,65,0.00,,,0.00,Weather View 32 v70,2013-02-11 17:42:00,
2013-02-11 12:47:00,80.0,67.6,30.15,SSW,203,7.0,14.0,66,0.00,,,0.00,Weather View 32 v70,2013-02-11 17:47:00,
2013-02-11 12:52:00,80.0,67.6,30.14,SSW,200,3.0,14.0,66,0.00,,,0.00,Weather View 32 v70,2013-02-11 17:52:00,
2013-02-11 12:58:00,80.0,68.0,30.14,South,185,0.0,14.0,67,0.00,,,0.00,Weather View 32 v70,2013-02-11 17:58:00,
2013-02-11 13:03:00,80.0,67.6,30.13,SSE,160,2.0,14.0,66,0.00,,,0.00,Weather View 32 v70,2013-02-11 18:03:00,
2013-02-11 13:08:00,80.0,68.0,30.13,SSW,200,3.0,15.0,67,0.00,,,0.00,Weather View 32 v70,2013-02-11 18:08:00,
2013-02-11 13:13:00,80.0,68.0,30.13,SSW,199,2.0,15.0,67,0.00,,,0.00,Weather View 32 v70,2013-02-11 18:13:00,
2013-02-11 13:18:00,80.0,67.6,30.12,SSE,166,3.0,15.0,66,0.00,,,0.00,Weather View 32 v70,2013-02-11 18:18:00,
2013-02-11 13:23:00,80.0,67.6,30.12,South,180,3.0,15.0,66,0.00,,,0.00,Weather View 32 v70,2013-02-11 18:23:00,
2013-02-11 13:28:00,80.0,68.0,30.12,SSW,202,3.0,15.0,67,0.00,,,0.00,Weather View 32 v70,2013-02-11 18:28:00,
2013-02-11 13:30:00,80.0,68.0,30.12,SSW,209,10.0,15.0,67,0.00,,,0.00,Weather View 32 v70,2013-02-11 18:30:00,
2013-02-11 13:33:00,80.0,68.0,30.11,SSW,195,4.0,15.0,67,0.00,,,0.00,Weather View 32 v70,2013-02-11 18:33:00,
2013-02-11 13:38:00,80.0,68.0,30.11,South,187,2.0,15.0,67,0.00,,,0.00,Weather View 32 v70,2013-02-11 18:38:00,
2013-02-11 13:43:00,79.0,67.5,30.11,South,190,2.0,15.0,68,0.00,,,0.00,Weather View 32 v70,2013-02-11 18:43:00,
2013-02-11 13:48:00,80.0,68.4,30.11,South,190,3.0,15.0,68,0.00,,,0.00,Weather View 32 v70,2013-02-11 18:48:00,
2013-02-11 13:53:00,80.0,68.4,30.11,SSW,207,7.0,15.0,68,0.00,,,0.00,Weather View 32 v70,2013-02-11 18:53:00,
2013-02-11 13:58:00,80.0,68.4,30.11,SSW,209,0.0,15.0,68,0.00,,,0.00,Weather View 32 v70,2013-02-11 18:58:00,
2013-02-11 14:03:00,80.0,68.4,30.11,SSE,167,3.0,15.0,68,0.00,,,0.00,Weather View 32 v70,2013-02-11 19:03:00,
2013-02-11 14:08:00,80.0,68.4,30.11,SSW,207,3.0,14.0,68,0.00,,,0.00,Weather View 32 v70,2013-02-11 19:08:00,
2013-02-11 14:13:00,80.0,68.9,30.10,SSW,194,0.0,14.0,69,0.00,,,0.00,Weather View 32 v70,2013-02-11 19:13:00,
2013-02-11 14:18:00,80.0,68.0,30.10,SW,217,8.0,13.0,67,0.00,,,0.00,Weather View 32 v70,2013-02-11 19:18:00,
2013-02-11 14:23:00,80.0,68.4,30.10,SSW,211,2.0,14.0,68,0.00,,,0.00,Weather View 32 v70,2013-02-11 19:23:00,
2013-02-11 14:28:00,80.0,68.4,30.10,SSE,163,4.0,14.0,68,0.00,,,0.00,Weather View 32 v70,2013-02-11 19:28:00,
2013-02-11 14:30:00,80.0,68.4,30.10,SE,126,0.0,14.0,68,0.00,,,0.00,Weather View 32 v70,2013-02-11 19:30:00,
2013-02-11 14:33:00,79.0,67.5,30.10,SSW,211,4.0,14.0,68,0.00,,,0.00,Weather View 32 v70,2013-02-11 19:33:00,
2013-02-11 14:38:00,79.0,67.9,30.10,South,190,2.0,16.0,69,0.00,,,0.00,Weather View 32 v70,2013-02-11 19:38:00,
2013-02-11 14:43:00,79.0,68.3,30.10,SSW,192,1.0,17.0,70,0.00,,,0.00,Weather View 32 v70,2013-02-11 19:43:00,
2013-02-11 14:48:00,79.0,68.8,30.10,SSW,205,0.0,17.0,71,0.00,,,0.00,Weather View 32 v70,2013-02-11 19:48:00,
2013-02-11 14:53:00,79.0,68.3,30.10,SSW,200,2.0,17.0,70,0.00,,,0.00,Weather View 32 v70,2013-02-11 19:53:00,
2013-02-11 14:58:00,79.0,67.9,30.10,SSE,159,0.0,17.0,69,0.00,,,0.00,Weather View 32 v70,2013-02-11 19:58:00,
2013-02-11 15:03:00,80.0,69.3,30.10,SSW,195,4.0,17.0,70,0.00,,,0.00,Weather View 32 v70,2013-02-11 20:03:00,
2013-02-11 15:08:00,80.0,68.9,30.10,SSW,213,0.0,17.0,69,0.00,,,0.00,Weather View 32 v70,2013-02-11 20:08:00,
2013-02-11 15:13:00,79.0,68.3,30.09,SSE,165,0.0,17.0,70,0.00,,,0.00,Weather View 32 v70,2013-02-11 20:13:00,
2013-02-11 15:18:00,79.0,68.8,30.09,South,191,2.0,17.0,71,0.00,,,0.00,Weather View 32 v70,2013-02-11 20:18:00,
2013-02-11 15:23:00,79.0,68.8,30.09,SSW,201,7.0,17.0,71,0.00,,,0.00,Weather View 32 v70,2013-02-11 20:23:00,
2013-02-11 15:28:00,79.0,69.2,30.09,SW,216,5.0,17.0,72,0.00,,,0.00,Weather View 32 v70,2013-02-11 20:28:00,
2013-02-11 15:30:00,79.0,69.2,30.09,SSW,198,2.0,17.0,72,0.00,,,0.00,Weather View 32 v70,2013-02-11 20:30:00,
2013-02-11 15:33:00,79.0,69.2,30.09,SSE,164,3.0,17.0,72,0.00,,,0.00,Weather View 32 v70,2013-02-11 20:33:00,
2013-02-11 15:38:00,79.0,69.2,30.09,SSW,198,4.0,17.0,72,0.00,,,0.00,Weather View 32 v70,2013-02-11 20:38:00,
2013-02-11 15:43:00,79.0,69.2,30.09,SSW,202,1.0,13.0,72,0.00,,,0.00,Weather View 32 v70,2013-02-11 20:43:00,
2013-02-11 15:48:00,79.0,69.2,30.09,SW,215,7.0,13.0,72,0.00,,,0.00,Weather View 32 v70,2013-02-11 20:48:00,
2013-02-11 15:53:00,78.0,68.6,30.09,SSW,209,0.0,14.0,73,0.00,,,0.00,Weather View 32 v70,2013-02-11 20:53:00,
2013-02-11 15:59:00,78.0,68.6,30.09,SW,224,12.0,14.0,73,0.00,,,0.00,Weather View 32 v70,2013-02-11 20:59:00,
2013-02-11 16:04:00,78.0,69.0,30.08,South,170,2.0,14.0,74,0.00,,,0.00,Weather View 32 v70,2013-02-11 21:04:00,
2013-02-11 16:09:00,77.0,68.0,30.09,SSW,200,0.0,15.0,74,0.00,,,0.00,Weather View 32 v70,2013-02-11 21:09:00,
2013-02-11 16:14:00,77.0,68.4,30.08,SSW,210,6.0,15.0,75,0.00,,,0.00,Weather View 32 v70,2013-02-11 21:14:00,
2013-02-11 16:19:00,77.0,68.8,30.08,South,182,6.0,15.0,76,0.00,,,0.00,Weather View 32 v70,2013-02-11 21:19:00,
2013-02-11 16:24:00,77.0,68.8,30.08,SSW,200,3.0,16.0,76,0.00,,,0.00,Weather View 32 v70,2013-02-11 21:24:00,
2013-02-11 16:29:00,76.0,67.9,30.08,SSE,157,0.0,16.0,76,0.00,,,0.00,Weather View 32 v70,2013-02-11 21:29:00,
2013-02-11 16:30:00,76.0,67.9,30.08,SSW,206,6.0,16.0,76,0.00,,,0.00,Weather View 32 v70,2013-02-11 21:30:00,
2013-02-11 16:34:00,76.0,68.2,30.08,SSW,213,1.0,16.0,77,0.00,,,0.00,Weather View 32 v70,2013-02-11 21:34:00,
2013-02-11 16:39:00,76.0,68.2,30.08,SSW,202,5.0,16.0,77,0.00,,,0.00,Weather View 32 v70,2013-02-11 21:39:00,
2013-02-11 16:44:00,76.0,68.2,30.08,SW,225,5.0,16.0,77,0.00,,,0.00,Weather View 32 v70,2013-02-11 21:44:00,
2013-02-11 16:49:00,76.0,68.2,30.08,SSW,202,7.0,16.0,77,0.00,,,0.00,Weather View 32 v70,2013-02-11 21:49:00,
2013-02-11 16:54:00,76.0,68.2,30.08,SE,146,2.0,16.0,77,0.00,,,0.00,Weather View 32 v70,2013-02-11 21:54:00,
2013-02-11 16:59:00,76.0,68.6,30.08,SSW,198,2.0,16.0,78,0.00,,,0.00,Weather View 32 v70,2013-02-11 21:59:00,
2013-02-11 17:04:00,75.0,68.0,30.08,SSW,192,3.0,16.0,79,0.00,,,0.00,Weather View 32 v70,2013-02-11 22:04:00,
2013-02-11 17:09:00,75.0,68.0,30.08,SW,222,8.0,16.0,79,0.00,,,0.00,Weather View 32 v70,2013-02-11 22:09:00,
2013-02-11 17:14:00,75.0,68.0,30.08,South,171,2.0,16.0,79,0.00,,,0.00,Weather View 32 v70,2013-02-11 22:14:00,
2013-02-11 17:19:00,75.0,68.4,30.08,South,185,4.0,16.0,80,0.00,,,0.00,Weather View 32 v70,2013-02-11 22:19:00,
2013-02-11 17:24:00,74.0,67.4,30.08,SSW,195,2.0,15.0,80,0.00,,,0.00,Weather View 32 v70,2013-02-11 22:24:00,
2013-02-11 17:29:00,74.0,67.4,30.08,SSE,163,0.0,14.0,80,0.00,,,0.00,Weather View 32 v70,2013-02-11 22:29:00,
2013-02-11 17:30:00,74.0,67.8,30.08,SSE,168,2.0,14.0,81,0.00,,,0.00,Weather View 32 v70,2013-02-11 22:30:00,
2013-02-11 17:34:00,74.0,67.8,30.08,SSW,195,2.0,14.0,81,0.00,,,0.00,Weather View 32 v70,2013-02-11 22:34:00,
2013-02-11 17:39:00,74.0,67.8,30.08,SSW,196,0.0,14.0,81,0.00,,,0.00,Weather View 32 v70,2013-02-11 22:39:00,
2013-02-11 17:44:00,74.0,67.8,30.08,South,183,2.0,14.0,81,0.00,,,0.00,Weather View 32 v70,2013-02-11 22:44:00,
2013-02-11 17:49:00,74.0,68.1,30.08,SSW,211,3.0,14.0,82,0.00,,,0.00,Weather View 32 v70,2013-02-11 22:49:00,
2013-02-11 17:54:00,73.0,67.2,30.08,SSW,207,4.0,14.0,82,0.00,,,0.00,Weather View 32 v70,2013-02-11 22:54:00,
2013-02-11 17:59:00,73.0,67.5,30.08,SSW,198,4.0,14.0,83,0.00,,,0.00,Weather View 32 v70,2013-02-11 22:59:00,
2013-02-11 18:04:00,73.0,67.5,30.08,SSE,164,1.0,14.0,83,0.00,,,0.00,Weather View 32 v70,2013-02-11 23:04:00,
2013-02-11 18:09:00,72.0,66.9,30.08,SSW,200,3.0,14.0,84,0.00,,,0.00,Weather View 32 v70,2013-02-11 23:09:00,
2013-02-11 18:14:00,72.0,66.9,30.08,SSW,212,3.0,14.0,84,0.00,,,0.00,Weather View 32 v70,2013-02-11 23:14:00,
2013-02-11 18:19:00,72.0,67.2,30.08,South,191,0.0,14.0,85,0.00,,,0.00,Weather View 32 v70,2013-02-11 23:19:00,
2013-02-11 18:24:00,72.0,67.2,30.08,SSW,207,0.0,14.0,85,0.00,,,0.00,Weather View 32 v70,2013-02-11 23:24:00,
2013-02-11 18:29:00,72.0,67.6,30.08,SSW,198,0.0,10.0,86,0.00,,,0.00,Weather View 32 v70,2013-02-11 23:29:00,
2013-02-11 18:30:00,72.0,67.6,30.08,SSW,198,0.0,10.0,86,0.00,,,0.00,Weather View 32 v70,2013-02-11 23:30:00,
2013-02-11 18:34:00,71.0,66.6,30.08,SSW,198,0.0,10.0,86,0.00,,,0.00,Weather View 32 v70,2013-02-11 23:34:00,
2013-02-11 18:39:00,71.0,66.6,30.08,SSW,210,3.0,10.0,86,0.00,,,0.00,Weather View 32 v70,2013-02-11 23:39:00,
2013-02-11 18:44:00,71.0,66.9,30.08,SSW,209,1.0,10.0,87,0.00,,,0.00,Weather View 32 v70,2013-02-11 23:44:00,
2013-02-11 18:49:00,71.0,66.9,30.08,South,190,0.0,8.0,87,0.00,,,0.00,Weather View 32 v70,2013-02-11 23:49:00,
2013-02-11 18:54:00,71.0,66.9,30.09,SSW,198,1.0,8.0,87,0.00,,,0.00,Weather View 32 v70,2013-02-11 23:54:00,
2013-02-11 18:59:00,71.0,67.3,30.08,SSW,199,1.0,8.0,88,0.00,,,0.00,Weather View 32 v70,2013-02-11 23:59:00,
2013-02-11 19:04:00,71.0,67.3,30.08,SSW,200,0.0,8.0,88,0.00,,,0.00,Weather View 32 v70,2013-02-12 00:04:00,
2013-02-11 19:10:00,70.0,66.3,30.09,SSW,200,0.0,7.0,88,0.00,,,0.00,Weather View 32 v70,2013-02-12 00:10:00,
2013-02-11 19:15:00,70.0,66.6,30.08,SSW,196,0.0,7.0,89,0.00,,,0.00,Weather View 32 v70,2013-02-12 00:15:00,
2013-02-11 19:20:00,70.0,66.6,30.08,SSW,207,2.0,7.0,89,0.00,,,0.00,Weather View 32 v70,2013-02-12 00:20:00,
2013-02-11 19:25:00,70.0,66.6,30.08,SSW,207,5.0,7.0,89,0.00,,,0.00,Weather View 32 v70,2013-02-12 00:25:00,
2013-02-11 19:30:00,70.0,66.6,30.08,SSW,193,0.0,7.0,89,0.00,,,0.00,Weather View 32 v70,2013-02-12 00:30:00,
2013-02-11 19:35:00,70.0,66.6,30.08,SSW,198,0.0,7.0,89,0.00,,,0.00,Weather View 32 v70,2013-02-12 00:35:00,
2013-02-11 19:40:00,70.0,66.6,30.08,SSW,198,0.0,7.0,89,0.00,,,0.00,Weather View 32 v70,2013-02-12 00:40:00,
2013-02-11 19:45:00,70.0,66.9,30.08,SSW,194,0.0,7.0,90,0.00,,,0.00,Weather View 32 v70,2013-02-12 00:45:00,
2013-02-11 19:50:00,70.0,66.9,30.08,SSW,193,0.0,7.0,90,0.00,,,0.00,Weather View 32 v70,2013-02-12 00:50:00,
2013-02-11 19:55:00,70.0,66.9,30.08,SSW,193,2.0,6.0,90,0.00,,,0.00,Weather View 32 v70,2013-02-12 00:55:00,
2013-02-11 20:00:00,70.0,66.9,30.08,SSW,192,0.0,6.0,90,0.00,,,0.00,Weather View 32 v70,2013-02-12 01:00:00,
2013-02-11 20:05:00,70.0,66.9,30.09,SSW,196,4.0,6.0,90,0.00,,,0.00,Weather View 32 v70,2013-02-12 01:05:00,
2013-02-11 20:10:00,70.0,66.9,30.09,SSW,195,0.0,6.0,90,0.00,,,0.00,Weather View 32 v70,2013-02-12 01:10:00,
2013-02-11 20:15:00,70.0,66.9,30.09,SSW,198,1.0,6.0,90,0.00,,,0.00,Weather View 32 v70,2013-02-12 01:15:00,
2013-02-11 20:20:00,70.0,66.9,30.09,SSW,198,0.0,6.0,90,0.00,,,0.00,Weather View 32 v70,2013-02-12 01:20:00,
2013-02-11 20:25:00,70.0,66.9,30.09,SSW,199,2.0,6.0,90,0.00,,,0.00,Weather View 32 v70,2013-02-12 01:25:00,
2013-02-11 20:30:00,70.0,66.9,30.09,SSW,199,0.0,5.0,90,0.00,,,0.00,Weather View 32 v70,2013-02-12 01:30:00,
2013-02-11 20:35:00,69.0,65.9,30.09,SSW,199,0.0,5.0,90,0.00,,,0.00,Weather View 32 v70,2013-02-12 01:35:00,
2013-02-11 20:40:00,69.0,66.3,30.09,SSW,199,0.0,5.0,91,0.00,,,0.00,Weather View 32 v70,2013-02-12 01:40:00,
2013-02-11 20:45:00,69.0,66.3,30.10,SSW,196,2.0,5.0,91,0.00,,,0.00,Weather View 32 v70,2013-02-12 01:45:00,
2013-02-11 20:50:00,69.0,66.3,30.09,SSW,196,0.0,5.0,91,0.00,,,0.00,Weather View 32 v70,2013-02-12 01:50:00,
2013-02-11 20:55:00,69.0,66.3,30.09,SSW,195,0.0,5.0,91,0.00,,,0.00,Weather View 32 v70,2013-02-12 01:55:00,
2013-02-11 21:00:00,69.0,66.3,30.10,SSW,196,1.0,5.0,91,0.00,,,0.00,Weather View 32 v70,2013-02-12 02:00:00,
2013-02-11 21:05:00,69.0,66.3,30.10,SSW,196,0.0,5.0,91,0.00,,,0.00,Weather View 32 v70,2013-02-12 02:05:00,
2013-02-11 21:10:00,69.0,66.3,30.10,SSW,196,0.0,5.0,91,0.00,,,0.00,Weather View 32 v70,2013-02-12 02:10:00,
2013-02-11 21:15:00,69.0,66.3,30.10,SSW,196,0.0,5.0,91,0.00,,,0.00,Weather View 32 v70,2013-02-12 02:15:00,
2013-02-11 21:20:00,69.0,66.3,30.10,SSW,196,0.0,5.0,91,0.00,,,0.00,Weather View 32 v70,2013-02-12 02:20:00,
2013-02-11 21:25:00,69.0,66.3,30.10,SSW,196,0.0,5.0,91,0.00,,,0.00,Weather View 32 v70,2013-02-12 02:25:00,
2013-02-11 21:30:00,69.0,66.3,30.10,SSW,196,0.0,5.0,91,0.00,,,0.00,Weather View 32 v70,2013-02-12 02:30:00,
2013-02-11 21:35:00,69.0,66.3,30.10,SSW,196,0.0,5.0,91,0.00,,,0.00,Weather View 32 v70,2013-02-12 02:35:00,
2013-02-11 21:41:00,69.0,66.3,30.10,SSW,196,0.0,5.0,91,0.00,,,0.00,Weather View 32 v70,2013-02-12 02:41:00,
2013-02-11 21:46:00,69.0,66.3,30.10,SSW,196,0.0,5.0,91,0.00,,,0.00,Weather View 32 v70,2013-02-12 02:46:00,
2013-02-11 21:51:00,69.0,66.6,30.10,SSW,196,0.0,5.0,92,0.00,,,0.00,Weather View 32 v70,2013-02-12 02:51:00,
2013-02-11 21:56:00,69.0,66.3,30.10,SSW,196,1.0,5.0,91,0.00,,,0.00,Weather View 32 v70,2013-02-12 02:56:00,
2013-02-11 22:01:00,69.0,66.3,30.10,SSW,196,0.0,5.0,91,0.00,,,0.00,Weather View 32 v70,2013-02-12 03:01:00,
2013-02-11 22:06:00,69.0,66.3,30.09,SSW,196,1.0,4.0,91,0.00,,,0.00,Weather View 32 v70,2013-02-12 03:06:00,
2013-02-11 22:11:00,69.0,66.6,30.09,SSW,198,0.0,4.0,92,0.00,,,0.00,Weather View 32 v70,2013-02-12 03:11:00,
2013-02-11 22:16:00,69.0,66.3,30.09,SSW,198,0.0,4.0,91,0.00,,,0.00,Weather View 32 v70,2013-02-12 03:16:00,
2013-02-11 22:21:00,69.0,66.6,30.09,SSW,198,0.0,4.0,92,0.00,,,0.00,Weather View 32 v70,2013-02-12 03:21:00,
2013-02-11 22:26:00,69.0,66.6,30.10,SSW,197,0.0,4.0,92,0.00,,,0.00,Weather View 32 v70,2013-02-12 03:26:00,
2013-02-11 22:30:00,69.0,66.6,30.10,SSW,213,0.0,6.0,92,0.00,,,0.00,Weather View 32 v70,2013-02-12 03:30:00,
2013-02-11 22:31:00,69.0,66.6,30.10,SSW,213,0.0,6.0,92,0.00,,,0.00,Weather View 32 v70,2013-02-12 03:31:00,
2013-02-11 22:36:00,69.0,66.6,30.10,SSW,213,0.0,6.0,92,0.00,,,0.00,Weather View 32 v70,2013-02-12 03:36:00,
2013-02-11 22:41:00,69.0,66.6,30.09,SSW,213,0.0,6.0,92,0.00,,,0.00,Weather View 32 v70,2013-02-12 03:41:00,
2013-02-11 22:46:00,69.0,66.6,30.10,SSW,212,0.0,6.0,92,0.00,,,0.00,Weather View 32 v70,2013-02-12 03:46:00,
2013-02-11 22:51:00,69.0,66.6,30.10,SSW,212,0.0,6.0,92,0.00,,,0.00,Weather View 32 v70,2013-02-12 03:51:00,
2013-02-11 22:56:00,69.0,66.6,30.10,SSW,212,2.0,6.0,92,0.00,,,0.00,Weather View 32 v70,2013-02-12 03:56:00,
2013-02-11 23:01:00,69.0,66.6,30.09,SSW,211,0.0,6.0,92,0.00,,,0.00,Weather View 32 v70,2013-02-12 04:01:00,
2013-02-11 23:06:00,69.0,66.6,30.09,SSW,213,2.0,6.0,92,0.00,,,0.00,Weather View 32 v70,2013-02-12 04:06:00,
2013-02-11 23:11:00,69.0,66.6,30.09,SSW,199,0.0,8.0,92,0.00,,,0.00,Weather View 32 v70,2013-02-12 04:11:00,
2013-02-11 23:16:00,69.0,66.6,30.09,SSW,202,0.0,8.0,92,0.00,,,0.00,Weather View 32 v70,2013-02-12 04:16:00,
2013-02-11 23:21:00,69.0,66.6,30.09,SSW,208,2.0,8.0,92,0.00,,,0.00,Weather View 32 v70,2013-02-12 04:21:00,
2013-02-11 23:26:00,69.0,66.6,30.09,SSW,205,2.0,8.0,92,0.00,,,0.00,Weather View 32 v70,2013-02-12 04:26:00,
2013-02-11 23:30:00,69.0,66.6,30.09,SSW,209,0.0,8.0,92,0.00,,,0.00,Weather View 32 v70,2013-02-12 04:30:00,
2013-02-11 23:31:00,69.0,66.6,30.09,SSW,209,0.0,8.0,92,0.00,,,0.00,Weather View 32 v70,2013-02-12 04:31:00,
2013-02-11 23:36:00,69.0,66.6,30.09,SSW,199,0.0,8.0,92,0.00,,,0.00,Weather View 32 v70,2013-02-12 04:36:00,
2013-02-11 23:41:00,69.0,66.6,30.09,SW,217,0.0,8.0,92,0.00,,,0.00,Weather View 32 v70,2013-02-12 04:41:00,
2013-02-11 23:46:00,69.0,66.6,30.09,SSW,213,0.0,8.0,92,0.00,,,0.00,Weather View 32 v70,2013-02-12 04:46:00,
2013-02-11 23:51:00,69.0,66.9,30.09,South,186,0.0,8.0,93,0.00,,,0.00,Weather View 32 v70,2013-02-12 04:51:00,
2013-02-11 23:56:00,69.0,66.6,30.09,South,187,0.0,8.0,92,0.00,,,0.00,Weather View 32 v70,2013-02-12 04:56:00,